Terminal Aerodrome Forecast
Issued by NWS Cleveland, OH

Home | Current Version | Previous Version | Graphics & Text | Print | Product List | Glossary On
Versions: 1 2 3 4 5 6 7 8 9 10 11 12 13 14 15 16 17 18 19 20 21 22 23 24 25 26
000
FTUS41 KCLE 220405 AAA
TAFTOL
TAF AMD
KTOL 220405Z 2204/2224 22002KT P6SM OVC050
      TEMPO 2204/2206 5SM BR BKN035
     FM220600 21003KT 6SM BR OVC025
     FM221000 21003KT 4SM BR OVC012
      TEMPO 2210/2214 OVC008
     FM221800 22008KT P6SM OVC025
     FM222100 22008KT P6SM BKN045=

USA.gov is the U.S. government's official web portal to all federal, state and local government web resources and services.